Terminal Aerodrome Forecast
Issued by NWS North Platte, NE

Home | Current Version | Previous Version | Text Only | Print | Product List | Glossary Off
Versions: 1 2 3 4 5 6 7 8 9 10 11 12 13 14 15 16 17 18 19 20 21 22 23 24 25 26

000
FTUS43 KLBF 170400 AAA
TAFVTN
TAF AMD
KVTN 170431Z 1705/1724 16005KT P6SM OVC012
     FM170800 15006KT P6SM OVC008
     FM171600 15008KT P6SM OVC012
     FM172000 15010KT P6SM OVC020=

USA.gov is the U.S. government's official web portal to all federal, state and local government web resources and services.